Location: Andershausen
(51.8462°N, 9.8595°E)
Time: 07:06:36
(UTC+00:00)

Cosmos 1943 Rocket - Pass Details

Date: 18 November 2025
Orbit: 812 x 841 km, 71.0° (Epoch: 11 December)

Event Time Altitude Azimuth Distance (km) Brightness Sun altitude
Rises 17:23:04 0° 211° (SSW) 3,372 5.9 -17.8°
Reaches altitude 10° 17:25:30 10° 212° (SSW) 2,438 5.1 -18.1°
Maximum altitude 17:31:06 82° 301° (WNW) 843 2.2 -19.0°
Enters shadow 17:35:21 18° 28° (NNE) 1,931 3.7 -19.6°
